DK0KTL-4 Weather Reports


Display with metric or nautical units.
time (UTC)temp
F
wind
direction
speed
MPH
gust
MPH
rain 1hr
in
rain 24hr
in
rain mn
in
humidity
%
barometer
mb
20260504022856 55 69 0.0 1.0 0.00 0.00 0.00 72 1012.2
20260504021856 56 92 0.0 2.0 0.00 0.00 0.00 73 1012.3
20260504021356 56 104 0.0 2.0 0.00 0.00 0.00 72 1012.3
20260504015855 56 123 0.0 2.0 0.00 0.00 0.00 72 1012.3
20260504014354 57 55 1.0 3.0 0.00 0.00 0.00 72 1012.2
20260504013853 57 54 1.0 2.0 0.00 0.00 0.00 71 1012.3
20260504013353 57 84 1.0 3.0 0.00 0.00 0.00 72 1012.2
20260504012853 57 70 1.0 2.0 0.00 0.00 0.00 71 1012.2
20260504011852 56 179 2.0 3.0 0.00 0.00 0.00 72 1012.2
20260504011352 56 272 2.0 6.0 0.00 0.00 0.00 73 1012.1
20260504010852 56 200 1.0 6.0 0.00 0.00 0.00 72 1011.6
20260504010351 56 282 0.0 1.0 0.00 0.00 0.00 71 1011.1
20260504005851 57 350 0.0 1.0 0.00 0.00 0.00 71 1011.1
20260504005351 57 53 0.0 1.0 0.00 0.00 0.00 71 1011.5
20260504004350 57 48 1.0 2.0 0.00 0.00 0.00 70 1011.8
20260504002849 57 76 0.0 1.0 0.00 0.00 0.00 71 1011.8
20260504001849 56 83 0.0 2.0 0.00 0.00 0.00 72 1011.9
20260504001349 56 73 0.0 0.0 0.00 0.00 0.00 72 1011.8
20260504000848 57 73 0.0 0.0 0.00 0.00 0.00 72 1012.0
20260504000348 57 73 0.0 1.0 0.00 0.00 0.00 71 1011.8
20260503235848 57 73 0.0 0.0 0.00 0.00 0.00 71 1011.7
20260503235347 57 73 0.0 0.0 0.00 0.00 0.00 70 1011.8
20260503234347 58 73 0.0 0.0 0.00 0.00 0.00 69 1011.7
20260503233846 58 73 0.0 0.0 0.00 0.00 0.00 68 1011.7
20260503233346 58 73 0.0 1.0 0.00 0.00 0.00 68 1011.8
20260503232846 58 73 0.0 1.0 0.00 0.00 0.00 68 1011.7
20260503232346 58 73 0.0 1.0 0.00 0.00 0.00 68 1011.8
20260503231345 58 74 0.0 1.0 0.00 0.00 0.00 68 1011.8
20260503224844 58 74 0.0 1.0 0.00 0.00 0.00 68 1011.6
20260503224343 58 74 0.0 0.0 0.00 0.00 0.00 69 1011.6
20260503223843 58 74 0.0 0.0 0.00 0.00 0.00 68 1011.5
20260503222843 58 65 0.0 0.0 0.00 0.00 0.00 68 1011.4
20260503222342 59 65 0.0 0.0 0.00 0.00 0.00 68 1011.5
20260503221342 59 65 0.0 0.0 0.00 0.00 0.00 67 1011.5
20260503215841 60 65 0.0 0.0 0.00 0.00 0.00 66 1011.3
20260503215341 60 65 0.0 1.0 0.00 0.00 0.00 65 1011.1
20260503213840 61 65 0.0 1.0 0.00 0.00 0.00 63 1011.1
20260503212839 61 65 0.0 1.0 0.00 0.00 0.00 61 1011.1
20260503212339 61 65 0.0 1.0 0.00 0.00 0.00 61 1011.0
20260503211338 61 65 1.0 2.0 0.00 0.00 0.00 59 1011.0
20260503210838 62 55 1.0 2.0 0.00 0.00 0.00 60 1011.0
20260503205837 62 58 1.0 2.0 0.00 0.00 0.00 59 1011.0
20260503205337 63 64 1.0 2.0 0.00 0.00 0.00 59 1010.9
20260503203836 64 74 1.0 2.0 0.00 0.00 0.00 58 1010.7
20260503202836 64 67 0.0 2.0 0.00 0.00 0.00 57 1010.6
20260503201835 65 64 0.0 2.0 0.00 0.00 0.00 56 1010.5
20260503201335 65 40 0.0 2.0 0.00 0.00 0.00 53 1010.4
20260503200834 66 47 0.0 2.0 0.00 0.00 0.00 52 1010.5
20260503200334 66 12 0.0 2.0 0.00 0.00 0.00 52 1010.5
20260503195834 66 355 0.0 1.0 0.00 0.00 0.00 51 1010.5
20260503195334 66 311 0.0 0.0 0.00 0.00 0.00 50 1010.4
20260503194333 67 311 0.0 2.0 0.00 0.00 0.00 49 1010.3
20260503193833 67 350 0.0 0.0 0.00 0.00 0.00 48 1010.3
20260503192832 68 350 0.0 1.0 0.00 0.00 0.00 47 1010.3
20260503191331 68 277 0.0 2.0 0.00 0.00 0.00 46 1010.3
20260503185830 69 248 0.0 2.0 0.00 0.00 0.00 45 1010.3
20260503184330 70 287 1.0 2.0 0.00 0.00 0.00 44 1010.2
20260503183829 70 285 1.0 2.0 0.00 0.00 0.00 44 1010.1
20260503182328 71 272 1.0 5.0 0.00 0.00 0.00 44 1010.1
20260503181828 71 342 1.0 4.0 0.00 0.00 0.00 43 1009.8
20260503175327 73 257 1.0 3.0 0.00 0.00 0.00 40 1009.9
20260503174826 74 289 2.0 5.0 0.00 0.00 0.00 40 1010.0
20260503173826 74 277 2.0 9.0 0.00 0.00 0.00 39 1009.9
20260503172825 74 302 2.0 6.0 0.00 0.00 0.00 39 1009.7
20260503172325 75 304 3.0 7.0 0.00 0.00 0.00 39 1009.8
20260503171825 75 207 3.0 5.0 0.00 0.00 0.00 38 1009.8
20260503170324 76 107 3.0 8.0 0.00 0.00 0.00 38 1009.8
20260503150317 80 138 2.0 5.0 0.00 0.00 0.00 27 1009.9
20260503110803 80 232 1.0 3.0 0.00 0.00 0.00 32 1012.1
20260503081253 70 134 3.0 5.0 0.00 0.00 0.00 41 1013.8
20260503080753 70 167 3.0 7.0 0.00 0.00 0.00 41 1013.7
20260503072750 66 132 2.0 6.0 0.00 0.00 0.00 45 1014.0
20260503072250 65 123 2.0 4.0 0.00 0.00 0.00 46 1014.0
20260503071249 63 184 2.0 6.0 0.00 0.00 0.00 46 1014.0
20260503070249 62 88 2.0 6.0 0.00 0.00 0.00 48 1014.0
20260503054744 51 150 0.0 2.0 0.00 0.00 0.00 67 1014.0
20260503054244 51 148 0.0 1.0 0.00 0.00 0.00 67 1014.0
20260503053744 51 148 0.0 1.0 0.00 0.00 0.00 67 1014.1
20260503052743 50 136 0.0 1.0 0.00 0.00 0.00 69 1014.1
20260503052243 50 161 0.0 0.0 0.00 0.00 0.00 69 1014.1
20260503051743 50 161 0.0 1.0 0.00 0.00 0.00 70 1014.1
20260503051242 49 146 0.0 3.0 0.00 0.00 0.00 70 1014.1
20260503050742 49 183 0.0 1.0 0.00 0.00 0.00 70 1014.1
20260503050242 49 200 0.0 2.0 0.00 0.00 0.00 71 1014.1
20260503045741 49 203 0.0 3.0 0.00 0.00 0.00 71 1014.1
20260503044741 48 183 0.0 1.0 0.00 0.00 0.00 71 1014.0
20260503044241 48 192 0.0 1.0 0.00 0.00 0.00 72 1014.1
20260503042740 48 158 0.0 1.0 0.00 0.00 0.00 72 1014.0
20260503042239 48 148 0.0 1.0 0.00 0.00 0.00 72 1014.1
20260503040238 47 146 0.0 1.0 0.00 0.00 0.00 74 1014.1
20260503034237 47 210 0.0 1.0 0.00 0.00 0.00 75 1014.1
20260503032736 47 210 0.0 1.0 0.00 0.00 0.00 75 1014.0
20260503032236 47 210 0.0 1.0 0.00 0.00 0.00 76 1014.1
20260503031736 47 210 0.0 2.0 0.00 0.00 0.00 76 1014.1
20260503030235 47 160 0.0 1.0 0.00 0.00 0.00 76 1014.1
20260503025735 47 160 0.0 1.0 0.00 0.00 0.00 77 1014.1
20260503025234 47 133 0.0 1.0 0.00 0.00 0.00 76 1014.2
20260503024734 47 115 0.0 0.0 0.00 0.00 0.00 76 1014.2
20260503024234 47 115 0.0 0.0 0.00 0.00 0.00 76 1014.2
20260503023733 47 115 0.0 0.0 0.00 0.00 0.00 76 1014.1
20260503023233 47 115 0.0 0.0 0.00 0.00 0.00 76 1014.2